Stations météo

réclame
Mon MeteoGroup
Figari, France (7780): Température de l'air & dewpoint: 11.01.2018 02:00:00 - 17.01.2018 02:00:00 (CET)Figari, France (7780): Température de l'air 5cm: 11.01.2018 02:00:00 - 17.01.2018 02:00:00 (CET)Figari, France (7780): Vitesse du vent & gusts: 11.01.2018 02:00:00 - 17.01.2018 02:00:00 (CET)Figari, France (7780): Direction du vent: 11.01.2018 02:00:00 - 17.01.2018 02:00:00 (CET)Figari, France (7780): reduced air pressure: 11.01.2018 02:00:00 - 17.01.2018 02:00:00 (CET)Figari, France (7780): visibility: 11.01.2018 02:00:00 - 17.01.2018 02:00:00 (CET)Figari, France (7780): Ensoleillement: 11.01.2018 02:00:00 - 17.01.2018 02:00:00 (CET)Figari, France (7780): Quantités de précipitations: 11.01.2018 02:00:00 - 17.01.2018 02:00:00 (CET)
Date & Time tt [°C] td [°C] tt 5cm [°C] ff [km/h] ff [knt] fx [km/h] fx [knt] dd ppp [hPa] vv [km] sd [min] rr [mm]
17.01.2018 02:00:00 - - - - - - - - - - - -
17.01.2018 01:00:00 13,8 10,6 12,5 50 27 78 42 W 1011,7 10 0 0,0
17.01.2018 00:00:00 13,8 10,6 12,5 42 23 77 41 WSW 1013,4 10 0 0,0
16.01.2018 23:00:00 13,8 11,1 13,0 37 20 71 38 WSW 1014,5 10 0 0,0
16.01.2018 22:00:00 13,7 11,2 12,7 44 24 76 41 WSW 1014,7 10 0 0,0
16.01.2018 21:00:00 13,7 10,5 12,4 46 25 74 40 W 1014,4 10 0 0,0
16.01.2018 20:00:00 13,6 10,6 12,6 50 27 83 45 W 1014,6 10 0 0,0
16.01.2018 19:00:00 13,6 10,4 12,3 46 25 81 44 W 1014,4 10 0 0,0
16.01.2018 18:00:00 13,8 9,8 12,6 53 29 91 49 W 1014,2 35 0 0,0
16.01.2018 17:00:00 14,3 9,7 13,3 50 27 101 54 W 1014,0 24 46 0,0
16.01.2018 16:00:00 14,7 10,1 14,7 58 32 93 50 W 1014,3 20 43 0,0
16.01.2018 15:00:00 15,1 9,7 15,0 57 31 102 55 W 1014,0 10 43 0,0
16.01.2018 14:00:00 14,8 10,0 14,2 53 29 - - W 1015,1 20 7 0,0
16.01.2018 13:00:00 14,2 10,2 13,7 - - - - - 1016,4 - 1 0,0
16.01.2018 12:00:00 13,8 10,0 13,2 52 28 86 47 W 1016,9 10 0 0,0
16.01.2018 11:00:00 13,7 9,7 11,7 54 29 98 53 W 1017,6 20 0 0,0
16.01.2018 10:00:00 13,2 9,3 11,2 46 25 83 45 WSW 1017,4 10 0 0,0
16.01.2018 09:00:00 12,8 8,9 10,3 49 27 84 46 W 1016,9 38 0 0,0
16.01.2018 08:00:00 12,3 8,9 9,7 44 24 80 43 W 1017,2 38 0 0,0
16.01.2018 07:00:00 12,0 8,3 9,6 48 26 82 44 W 1017,3 46 0 0,2
16.01.2018 06:00:00 12,3 8,0 9,6 41 22 69 37 WSW 1017,5 10 0 0,0
16.01.2018 05:00:00 12,1 8,0 9,6 40 22 72 39 WSW 1018,5 58 0 0,0
16.01.2018 04:00:00 11,7 8,5 8,7 30 16 56 30 WSW 1019,5 19 0 0,0
16.01.2018 03:00:00 10,6 7,7 7,8 26 14 55 30 W 1020,2 60 0 0,0
16.01.2018 02:00:00 10,7 8,3 8,5 - - - - - 1020,4 - 0 0,2
16.01.2018 01:00:00 10,3 8,4 8,1 - - - - - 1021,3 5 0 0,4
16.01.2018 00:00:00 10,7 8,1 8,1 - - - - - 1021,3 - 0 0,0
15.01.2018 23:00:00 9,5 8,3 7,0 - - - - - 1021,6 - 0 0,0
15.01.2018 22:00:00 9,4 8,3 7,5 10 6 42 23 WSW 1021,6 49 0 2,6
15.01.2018 21:00:00 10,5 7,4 8,1 11 6 24 13 W 1021,4 10 0 0,0
15.01.2018 20:00:00 9,8 7,7 3,6 14 8 29 15 SW 1021,2 16 0 0,0
15.01.2018 19:00:00 9,6 6,5 5,2 9 5 21 12 WSW 1021,4 60 0 0,0
15.01.2018 18:00:00 10,7 7,0 8,2 13 7 22 12 WSW 1021,5 10 0 0,0
15.01.2018 17:00:00 11,9 7,4 10,1 16 9 34 18 WSW 1021,6 10 28 0,0
15.01.2018 16:00:00 13,4 6,5 12,8 22 12 41 22 WSW 1021,2 10 55 0,0
15.01.2018 15:00:00 14,6 8,1 17,0 26 14 39 21 WSW 1021,1 10 55 0,0
15.01.2018 14:00:00 14,4 9,0 15,2 22 12 32 18 WSW 1021,7 10 35 0,0
15.01.2018 13:00:00 14,2 9,0 18,5 20 11 34 18 SSW 1022,6 47 58 0,0
15.01.2018 12:00:00 13,9 7,9 14,3 15 8 21 11 SSW 1023,1 10 37 0,0
15.01.2018 11:00:00 14,5 8,2 12,1 4 2 9 5 - 1023,4 10 46 0,0
15.01.2018 10:00:00 10,7 7,8 8,8 0 0 6 3 N 1023,2 44 0 0,0
15.01.2018 09:00:00 9,1 6,4 6,1 3 2 13 7 E 1022,7 45 19 0,0
15.01.2018 08:00:00 7,9 5,5 5,9 8 4 16 8 N 1022,3 10 0 0,0
15.01.2018 07:00:00 8,3 5,8 5,3 9 5 19 11 E 1021,6 36 0 0,0
15.01.2018 06:00:00 8,7 6,1 6,7 12 6 22 12 ENE 1021,1 37 0 0,0
15.01.2018 05:00:00 9,1 6,4 7,2 13 7 24 13 ENE 1021,1 10 0 0,0
15.01.2018 04:00:00 8,7 6,5 6,7 13 7 25 14 ENE 1021,3 33 0 0,0
15.01.2018 03:00:00 8,1 6,2 5,0 13 7 22 12 ENE 1021,6 10 0 0,0
15.01.2018 02:00:00 7,5 6,0 5,0 13 7 23 13 ENE 1021,5 10 0 0,0
15.01.2018 01:00:00 7,3 5,9 3,5 11 6 19 11 ENE 1021,6 10 0 0,0
15.01.2018 00:00:00 7,7 6,3 2,4 9 5 20 11 ENE 1021,7 24 0 0,0
14.01.2018 23:00:00 8,0 6,5 5,9 11 6 19 10 ENE 1021,4 10 0 0,8
14.01.2018 22:00:00 8,9 6,0 5,2 9 5 16 9 ESE 1021,5 10 0 0,0
14.01.2018 21:00:00 7,9 5,2 5,1 11 6 19 10 ENE 1020,7 33 0 0,0
14.01.2018 20:00:00 8,4 5,3 4,6 12 7 20 11 ENE 1020,5 38 0 0,0
14.01.2018 19:00:00 8,1 5,0 4,4 11 6 16 9 ENE 1020,3 35 0 0,0
14.01.2018 18:00:00 8,4 5,3 4,9 10 5 18 10 ENE 1019,9 33 0 0,0
14.01.2018 17:00:00 10,4 6,0 8,7 11 6 22 12 NE 1019,6 10 15 0,0
14.01.2018 16:00:00 11,7 5,6 11,3 11 6 23 13 ENE 1019,3 51 1 0,0
14.01.2018 15:00:00 12,6 6,0 13,5 14 8 28 15 ENE 1018,9 53 13 0,0
14.01.2018 14:00:00 12,7 6,3 13,2 12 7 25 13 ENE 1019,3 50 3 0,0
14.01.2018 13:00:00 12,4 4,8 14,2 13 7 26 14 NE 1019,5 10 10 0,0
14.01.2018 12:00:00 12,8 5,0 13,7 16 9 30 16 NE 1020,0 10 56 0,0
14.01.2018 11:00:00 11,6 4,6 11,8 16 8 25 14 NE 1020,5 54 8 0,0
14.01.2018 10:00:00 11,4 4,4 10,7 11 6 21 11 ENE 1020,3 10 56 0,0
14.01.2018 09:00:00 8,0 4,2 0,3 7 4 22 12 ENE 1019,8 32 40 0,0
14.01.2018 08:00:00 5,3 2,6 0,3 10 5 15 8 ENE 1019,5 38 0 0,0
14.01.2018 07:00:00 5,8 3,6 1,5 10 5 16 8 ENE 1019,3 40 0 0,0
14.01.2018 06:00:00 5,1 3,3 1,0 9 5 15 8 ENE 1019,2 37 0 0,0
14.01.2018 05:00:00 4,9 3,1 0,4 10 5 14 7 NE 1019,0 34 0 0,0
14.01.2018 04:00:00 5,3 3,6 0,6 5 3 11 6 ENE 1019,3 39 0 0,0
14.01.2018 03:00:00 4,9 3,4 -0,1 6 3 13 7 E 1019,7 38 0 0,0
14.01.2018 02:00:00 4,0 3,1 -0,4 2 1 12 6 - 1019,6 10 0 0,0
14.01.2018 01:00:00 4,1 2,6 -0,2 5 3 16 9 NE 1020,1 28 0 0,0
14.01.2018 00:00:00 5,0 3,7 1,0 10 6 16 9 NE 1020,4 28 0 0,0
13.01.2018 23:00:00 5,3 4,3 0,2 8 5 16 9 NE 1020,7 28 0 0,0
13.01.2018 22:00:00 5,0 4,1 -0,8 9 5 16 9 NE 1020,6 25 0 0,0
13.01.2018 21:00:00 4,3 3,7 -0,8 6 3 9 5 NNE 1020,4 13 0 0,0
13.01.2018 20:00:00 5,2 4,3 0,0 7 4 10 6 NE 1020,6 8 0 0,0
13.01.2018 19:00:00 6,6 5,4 2,1 9 5 15 8 N 1020,3 14 0 0,0
13.01.2018 18:00:00 9,1 7,2 7,4 9 5 15 8 ENE 1020,3 24 0 0,0
13.01.2018 17:00:00 9,8 7,4 8,4 10 5 18 10 ENE 1020,1 26 0 0,0
13.01.2018 16:00:00 11,5 6,6 10,0 11 6 22 12 NNE 1020,0 14 2 0,0
13.01.2018 15:00:00 12,7 6,1 12,2 10 5 22 12 WSW 1019,7 60 13 0,0
13.01.2018 14:00:00 14,4 6,2 13,7 4 2 10 6 SSE 1019,6 50 20 0,0
13.01.2018 13:00:00 13,3 5,0 12,1 3 2 15 8 ENE 1020,1 60 3 0,0
13.01.2018 12:00:00 12,0 5,4 9,5 9 5 16 9 ENE 1020,7 10 0 0,0
13.01.2018 11:00:00 10,5 5,7 9,6 11 6 21 11 ENE 1021,0 10 11 0,0
13.01.2018 10:00:00 10,7 6,4 8,5 10 6 18 10 ENE 1020,7 42 40 0,0
13.01.2018 09:00:00 8,4 7,3 7,2 4 2 8 4 NNE 1020,4 35 0 0,0
13.01.2018 08:00:00 8,3 6,4 7,1 5 3 12 6 WSW 1020,1 41 0 0,0
13.01.2018 07:00:00 8,2 5,5 6,9 6 3 13 7 NNE 1019,8 59 0 0,0
13.01.2018 06:00:00 7,9 6,2 6,8 9 5 13 7 ENE 1019,7 10 0 0,0
13.01.2018 05:00:00 7,8 6,6 6,9 5 3 15 8 NE 1019,6 10 0 0,0
13.01.2018 04:00:00 7,8 6,6 6,9 9 5 16 9 NNE 1019,7 32 0 0,4
13.01.2018 03:00:00 7,8 6,6 6,6 9 5 14 8 ENE 1019,8 10 0 0,0
13.01.2018 02:00:00 7,8 6,6 6,7 4 2 12 6 ENE 1019,8 38 0 0,0
13.01.2018 01:00:00 7,9 7,3 5,8 7 4 14 7 NE 1019,8 20 0 0,4
13.01.2018 00:00:00 6,0 5,7 1,3 8 4 13 7 NNE 1019,9 19 0 0,0
12.01.2018 23:00:00 4,9 4,2 1,5 5 3 8 4 NE 1019,8 13 0 0,0
12.01.2018 22:00:00 6,6 5,5 3,1 4 2 7 4 NNE 1019,2 10 0 0,0
12.01.2018 21:00:00 7,6 5,9 4,1 2 1 11 6 - 1018,9 10 0 0,0
12.01.2018 20:00:00 8,3 6,9 5,9 4 2 8 4 ENE 1018,5 31 0 0,0
12.01.2018 19:00:00 9,7 7,3 8,0 6 3 11 6 N 1017,8 40 0 0,0
12.01.2018 18:00:00 9,7 7,0 7,9 4 2 18 10 NE 1017,2 48 0 0,0
12.01.2018 17:00:00 10,5 7,2 9,4 11 6 22 12 ENE 1016,7 10 0 0,0
12.01.2018 16:00:00 12,1 7,0 10,6 11 6 21 12 ENE 1016,0 54 29 0,0
12.01.2018 15:00:00 11,9 6,6 11,4 13 7 27 14 ENE 1015,5 53 1 0,0
12.01.2018 14:00:00 12,4 6,9 13,1 13 7 27 14 NE 1014,9 60 0 0,0
12.01.2018 13:00:00 12,8 7,7 11,1 11 6 29 16 NNE 1014,8 10 1 0,0
12.01.2018 12:00:00 11,8 7,5 11,0 15 8 36 19 ENE 1014,9 10 0 0,0
12.01.2018 11:00:00 11,9 7,4 9,3 11 6 19 10 NNE 1014,9 60 0 0,0
12.01.2018 10:00:00 10,1 7,3 8,8 10 5 26 14 N 1014,4 56 0 0,0
12.01.2018 09:00:00 9,2 7,5 7,6 5 3 21 12 N 1013,5 10 0 0,0
12.01.2018 08:00:00 9,0 7,6 5,6 13 7 22 12 NE 1012,9 10 0 0,0
12.01.2018 07:00:00 6,7 6,4 5,5 5 3 10 6 NNE 1012,3 60 0 0,0
12.01.2018 06:00:00 5,9 5,6 3,1 4 2 8 4 NNE 1011,6 60 0 0,0
12.01.2018 05:00:00 4,8 4,5 1,6 4 2 9 5 NNE 1011,4 60 0 0,0
12.01.2018 04:00:00 4,8 4,2 1,5 4 2 10 5 WNW 1011,0 10 0 0,0
12.01.2018 03:00:00 6,6 6,3 3,4 3 2 13 7 NNE 1011,0 17 0 0,0
12.01.2018 02:00:00 6,7 6,3 4,6 5 3 11 6 N 1010,8 19 0 0,0
12.01.2018 01:00:00 8,1 7,8 7,1 4 2 15 8 - 1010,5 10 0 0,0
12.01.2018 00:00:00 7,8 7,4 7,0 4 2 10 5 SE 1010,5 20 0 0,4
11.01.2018 23:00:00 7,6 7,2 6,4 4 2 16 9 - 1010,6 10 0 0,0
11.01.2018 22:00:00 7,1 7,0 1,9 9 5 15 8 NE 1010,2 16 0 0,0
11.01.2018 21:00:00 5,3 4,9 2,4 3 2 7 4 ENE 1009,5 4,6 0 0,0
11.01.2018 20:00:00 6,3 5,7 2,9 3 2 6 4 N 1009,7 0,7 0 0,0
11.01.2018 19:00:00 8,1 7,5 4,6 4 2 8 4 - 1009,1 10 0 0,0
11.01.2018 18:00:00 9,2 8,4 5,8 3 1 10 5 ENE 1008,9 12 0 0,0
11.01.2018 17:00:00 9,9 9,1 9,0 4 2 8 4 ESE 1008,6 11 0 1,2
11.01.2018 16:00:00 10,3 8,9 9,9 2 1 10 5 NNE 1008,3 20 0 0,6
11.01.2018 15:00:00 10,3 8,6 10,5 8 4 21 11 ENE 1008,1 15 6 0,4
11.01.2018 14:00:00 11,2 9,5 9,0 2 1 22 12 ENE 1008,1 11 1 7,3
11.01.2018 13:00:00 12,0 9,4 10,8 8 5 16 9 SSW 1008,6 13 0 0,4
11.01.2018 12:00:00 13,1 9,5 15,0 8 4 14 8 SSW 1009,4 10 20 0,0
11.01.2018 11:00:00 13,6 10,0 11,3 4 2 8 5 SE 1009,6 47 46 0,0
11.01.2018 10:00:00 10,7 9,6 10,4 4 2 7 4 SSE 1009,8 39 28 0,0
11.01.2018 09:00:00 8,9 8,4 7,1 6 3 11 6 NE 1009,7 19 7 0,0
11.01.2018 08:00:00 8,5 7,9 6,8 3 2 8 5 NE 1009,8 19 0 0,0
11.01.2018 07:00:00 8,9 8,1 7,0 8 4 22 12 - 1009,8 10 0 0,0
11.01.2018 06:00:00 9,1 8,0 7,4 15 8 23 12 WSW 1009,8 59 0 0,0
11.01.2018 05:00:00 9,2 8,4 6,3 13 7 19 11 SW 1010,0 36 0 0,0
11.01.2018 04:00:00 9,9 8,8 8,1 7 4 19 10 SSW 1010,7 60 0 0,0
11.01.2018 03:00:00 10,3 8,9 8,5 9 5 22 12 SW 1011,0 10 0 0,2
11.01.2018 02:00:00 10,9 9,8 9,9 16 9 26 14 SW 1011,5 11 0 2,1

tt = Température de l'air
td = dewpoint
tt 5cm = Température de l'air 5cm
ff = Vitesse du vent
fx = gusts
dd = Direction du vent
ppp = reduced air pressure
vv = visibility
sd = Ensoleillement
rr = Quantités de précipitations

stations d'obs. à proximité